星链-35053(STARLINK-35053)

导读

STARLINK-35053是美国SpaceX公司星链(Starlink)卫星互联网项目的低轨通信卫星,于2025年9月13日发射入轨。它依托星链星座的规模化部署,延续了该项目技术特性,采用先进设计支持激光互联,运行于近地轨道,旨在补充全球卫星互联网覆盖,为偏远地区、基础设施薄弱区域提供高速低延迟宽带服务,进一步扩大星链星座服务规模与覆盖范围,助力天地一体化网络构建。

基本信息
目录编号:
65609
目录名称:
STARLINK-35053
国际标识:
2025-207T
轨道中心:
EARTH
卫星名称:
星链-35053
卫星全名:
星链-35053(STARLINK-35053)
卫星状态:
在轨 (已飞行273 天)
发射日期:
2025-09-13 UTC
国别 :
美国 (US)
星等 :
--
轨道信息
数据来源 国际轨道数据 AOE轨道数据
星历时间 2026-06-13T12:25:48+0800
11小时前
查看轨道信息
2026-06-12T00:00:00+0800
2天前
查看轨道信息
半长轴 6927.577km 6927.641km
偏心率 0.0001745 0.0001797
轨道倾角 97.364° 97.375°
近地点辐角 134.110° 129.557°
升交点赤经 231.986° 230.538°
平近点角 226.027° 288.093°
近地点 548.231km 548.259km
远地点 550.649km 550.749km
周期 95.638分钟 95.640分钟
每日圈数 15.056733 15.056526
详细信息
固有亮度:
5
最大亮度:
2.5
卫星平台:
Starlink V1.0
覆盖范围:
全球
运营商:
太空探索技术公司
运营商所在国:
美国
制造商(研发单位):
太空探索技术公司
制造商所在国:
美国
使用方式:
暂无
卫星简介
Starlink 计划是 SpaceX 推出的全球卫星互联网项目,通过发射低轨道卫星,为全球尤其是偏远地区提供高速、低延迟的互联网服务。自 2019 年起,Starlink 已部署数千颗卫星,旨在缩小全球数字鸿沟,推动互联网普及。该项目还为军事、航空等行业提供通信支持,带来广泛经济效益。
2D轨道图
3D轨道图
轨道高度分析图
轨道倾角分析图
轨道综合分析图
查看轨道综合分析图